KJ5MTR Weather Reports


time (UTC)temp
F
wind
direction
speed
knots
gust
knots
rain 1hr
in
rain 24hr
in
rain mn
in
humidity
%
barometer
mb
20260506185517 74 0.0 3.5 0.00 0.00 0.00 73 1011.6
20260506184517 75 0.0 1.7 0.00 0.00 0.00 72 1011.5
20260506183517 76 0.0 2.6 0.00 0.00 0.00 70 1011.5
20260506182517 76 0.0 0.9 0.00 0.00 0.00 71 1011.4
20260506181517 75 0.0 0.0 0.00 0.00 0.00 73 1011.5
20260506180517 73 0.0 0.9 0.00 0.00 0.00 73 1011.1
20260506175517 73 0.0 0.9 0.00 0.00 0.00 75 1011.1
20260506174517 72 0.0 0.0 0.00 0.00 0.00 74 1010.9
20260506173517 71 0.0 0.9 0.00 0.00 0.00 75 1011.0
20260506172517 71 0.0 0.0 0.00 0.00 0.00 76 1011.3
20260506171517 69 0.0 1.7 0.00 0.00 0.00 78 1011.1
20260506170517 68 0.0 2.6 0.00 0.00 0.00 81 1011.2
20260506165517 67 0.0 0.9 0.00 0.00 0.00 83 1011.5
20260506164517 66 338 0.9 6.1 0.00 0.00 0.00 84 1011.8
20260506163517 64 0.0 1.7 0.00 0.00 0.00 88 1011.8
20260506162517 62 315 1.7 8.7 0.00 0.00 0.00 88 1012.1
20260506161517 62 338 1.7 9.6 0.00 0.00 0.00 90 1012.7
20260506160517 62 338 1.7 8.7 0.00 0.00 0.00 90 1013.1
20260506155517 63 338 1.7 7.8 0.00 0.00 0.00 90 1012.9
20260506154517 64 315 0.9 6.1 0.00 0.00 0.00 90 1012.5
20260506153557 65 315 0.9 8.7 0.00 0.00 0.00 89 1012.6
20260506152517 66 315 0.9 7.0 0.00 0.00 0.00 89 1011.8
20260506151517 67 0.0 0.0 0.00 0.00 0.00 88 1011.5
20260506150537 69 338 0.9 6.1 0.00 0.00 0.00 84 1011.2
20260506145517 74 338 1.7 8.7 0.00 0.00 0.00 77 1011.0
20260506144516 79 0.0 0.0 0.00 0.00 0.00 84 1010.2
20260506143536 79 0.0 0.0 0.00 0.00 0.00 84 1009.9
20260506142516 79 0.0 0.9 0.00 0.00 0.00 84 1009.7
20260506141517 79 0.0 0.9 0.00 0.00 0.00 86 1009.5
20260506140517 78 0.0 0.0 0.00 0.00 0.00 86 1009.8
20260506135536 78 0.0 0.0 0.00 0.00 0.00 87 1009.8
20260506134516 78 0.0 0.0 0.00 0.00 0.00 86 1009.4
20260506133516 78 0.0 0.9 0.00 0.00 0.00 88 1009.4
20260506132516 76 0.0 0.0 0.00 0.00 0.00 90 1009.2
20260506131516 76 0.0 0.0 0.00 0.00 0.00 91 1009.2
20260506130516 75 0.0 0.9 0.00 0.00 0.00 92 1009.1
20260506125536 75 0.0 0.0 0.00 0.00 0.00 92 1009.0
20260506124516 74 0.0 0.0 0.00 0.00 0.00 93 1009.0
20260506123516 74 0.0 0.0 0.00 0.00 0.00 93 1008.9
20260506122518 74 0.0 0.0 0.00 0.00 0.00 93 1008.9
20260506121516 74 0.0 0.0 0.00 0.00 0.00 93 1008.8
20260506120516 74 0.0 0.0 0.00 0.00 0.00 93 1008.8
20260506115537 74 0.0 0.0 0.00 0.00 0.00 92 1008.7
20260506114516 74 0.0 0.0 0.00 0.00 0.00 92 1008.8
20260506113516 74 0.0 0.0 0.00 0.00 0.00 92 1008.9
20260506112536 74 0.0 0.0 0.00 0.00 0.00 92 1008.9
20260506111516 74 0.0 0.0 0.00 0.00 0.00 92 1008.8
20260506110516 74 0.0 0.0 0.00 0.00 0.00 92 1008.8
20260506105516 75 0.0 0.0 0.00 0.00 0.00 91 1008.7
20260506104516 75 0.0 0.0 0.00 0.00 0.00 91 1008.7
20260506103517 75 0.0 0.9 0.00 0.00 0.00 91 1008.5
20260506102516 75 0.0 0.9 0.00 0.00 0.00 91 1008.5
20260506101516 75 0.0 0.0 0.00 0.00 0.00 91 1008.5
20260506100536 75 0.0 0.0 0.00 0.00 0.00 91 1008.5
20260506095516 75 0.0 0.9 0.00 0.00 0.00 91 1008.3
20260506094536 75 0.0 0.0 0.00 0.00 0.00 91 1008.2
20260506093516 75 0.0 0.0 0.00 0.00 0.00 91 1008.0
20260506092516 75 0.0 0.9 0.00 0.00 0.00 91 1008.0
20260506091516 75 0.0 0.0 0.00 0.00 0.00 91 1007.9
20260506090517 75 0.0 1.7 0.00 0.00 0.00 91 1007.7
20260506085516 75 0.0 0.9 0.00 0.00 0.00 91 1007.8
20260506084516 75 0.0 1.7 0.00 0.00 0.00 90 1007.6
20260506083517 75 0.0 3.5 0.00 0.00 0.00 90 1007.6
20260506082516 75 0.0 0.9 0.00 0.00 0.00 90 1007.4
20260506081517 75 0.0 3.5 0.00 0.00 0.00 90 1007.4
20260506080536 75 0.0 2.6 0.00 0.00 0.00 90 1007.5
20260506073516 76 0.0 4.3 0.00 0.00 0.00 90 1007.7
20260506072516 76 0.0 2.6 0.00 0.00 0.00 90 1007.8
20260506071536 76 225 0.9 13.0 0.00 0.00 0.00 90 1007.8
20260506070516 76 0.0 4.3 0.00 0.00 0.00 90 1007.9
20260506062516 76 0.0 2.6 0.00 0.00 0.00 90 1007.7
20260506061536 76 0.0 3.5 0.00 0.00 0.00 90 1007.6
20260506060516 76 0.0 1.7 0.00 0.00 0.00 90 1007.8
20260506050556 76 0.0 3.5 0.00 0.00 0.00 90 1007.6
20260506044516 75 0.0 5.2 0.00 0.00 0.00 90 1007.7
20260506043516 76 0.0 0.9 0.00 0.00 0.00 90 1007.7
20260506042516 76 0.0 2.6 0.00 0.00 0.00 90 1007.6
20260506041516 76 0.0 0.9 0.00 0.00 0.00 89 1007.5
20260506040536 76 0.0 0.9 0.00 0.00 0.00 89 1007.5
20260506035516 76 0.0 1.7 0.00 0.00 0.00 89 1007.2
20260506034516 76 0.0 1.7 0.00 0.00 0.00 89 1007.2
20260506033516 76 0.0 0.0 0.00 0.00 0.00 88 1007.2
20260506032556 77 0.0 1.7 0.00 0.00 0.00 88 1007.0
20260506031516 77 0.0 1.7 0.00 0.00 0.00 88 1006.9
20260506030516 77 0.0 0.9 0.00 0.00 0.00 87 1006.8
20260506025516 77 0.0 0.9 0.00 0.00 0.00 87 1006.8
20260506024515 77 0.0 1.7 0.00 0.00 0.00 86 1006.6
20260506023515 78 0.0 3.5 0.00 0.00 0.00 85 1006.3
20260506022536 78 0.0 1.7 0.00 0.00 0.00 84 1006.1
20260506021515 78 0.0 0.9 0.00 0.00 0.00 83 1006.0
20260506020515 78 0.0 0.0 0.00 0.00 0.00 83 1005.7
20260506015515 79 0.0 0.0 0.00 0.00 0.00 83 1005.8
20260506014536 79 0.0 0.0 0.00 0.00 0.00 82 1005.7
20260506013515 79 0.0 0.9 0.00 0.00 0.00 81 1005.7
20260506012515 80 0.0 0.0 0.00 0.00 0.00 80 1005.5
20260506011557 80 0.0 0.0 0.00 0.00 0.00 79 1005.6
20260506010516 81 0.0 0.9 0.00 0.00 0.00 79 1005.7
20260506005535 81 0.0 0.0 0.00 0.00 0.00 78 1005.6
20260506004535 82 0.0 0.0 0.00 0.00 0.00 77 1005.7
20260506003516 82 0.0 0.0 0.00 0.00 0.00 76 1005.6
20260506002515 82 0.0 0.0 0.00 0.00 0.00 75 1005.7
20260506001535 82 0.0 0.0 0.00 0.00 0.00 75 1005.7
20260506000515 83 0.0 0.9 0.00 0.00 0.00 74 1005.6
20260505235535 83 0.0 1.7 0.00 0.00 0.00 73 1005.6
20260505234515 84 0.0 0.9 0.00 0.00 0.00 73 1005.4
20260505233535 84 0.0 1.7 0.00 0.00 0.00 72 1005.3
20260505232517 84 0.0 5.2 0.00 0.00 0.00 71 1005.2
20260505231535 84 0.0 0.9 0.00 0.00 0.00 71 1005.1
20260505230537 84 0.0 0.9 0.00 0.00 0.00 72 1005.1
20260505225515 84 0.0 1.7 0.00 0.00 0.00 73 1005.1
20260505224517 84 0.0 3.5 0.00 0.00 0.00 71 1005.1
20260505223517 85 0.0 0.9 0.00 0.00 0.00 70 1005.0
20260505222517 85 0.0 1.7 0.00 0.00 0.00 69 1005.0
20260505221517 85 0.0 2.6 0.00 0.00 0.00 70 1005.1
20260505220517 86 0.0 2.6 0.00 0.00 0.00 69 1005.3
20260505215537 86 0.0 1.7 0.00 0.00 0.00 68 1005.4
20260505214517 86 0.0 3.5 0.00 0.00 0.00 68 1005.6
20260505213517 86 0.0 4.3 0.00 0.00 0.00 66 1005.5
20260505212517 86 0.0 6.1 0.00 0.00 0.00 66 1005.8
20260505211517 86 0.0 3.5 0.00 0.00 0.00 67 1006.0
20260505210517 85 225 0.9 5.2 0.00 0.00 0.00 67 1006.0
20260505205517 85 0.0 4.3 0.00 0.00 0.00 68 1006.1
20260505204517 85 0.0 0.9 0.00 0.00 0.00 69 1006.1
20260505203517 85 0.0 1.7 0.00 0.00 0.00 70 1006.3
20260505202517 85 0.0 4.3 0.00 0.00 0.00 70 1006.4
20260505201517 85 225 0.9 7.8 0.00 0.00 0.00 69 1006.6
20260505200517 84 0.0 2.6 0.00 0.00 0.00 72 1006.8
20260505195517 84 0.0 5.2 0.00 0.00 0.00 71 1006.9
20260505194517 83 0.0 4.3 0.00 0.00 0.00 72 1007.1
20260505193517 83 0.0 4.3 0.00 0.00 0.00 72 1007.2
20260505192517 83 0.0 3.5 0.00 0.00 0.00 74 1007.2
20260505191537 83 0.0 2.6 0.00 0.00 0.00 71 1007.4
20260505190517 82 0.0 1.7 0.00 0.00 0.00 73 1007.4